,,Stat5,,Stat1,,Stat2,,Stat3,,Stat4,,Wind1,,Wind1,
time,status,PA1M_AVG,status,PR1M_SUM,status,RH1M_AVG,status,SR1M_AVG,status,TA1M_AVG,status,W1dAve1m,status,W1sAve1m,
2001-03-23, 00:00:00,VALID,917.013,VALID,0,VALID,98.2887,VALID,-0.0339617,VALID,19.0696,VALID,277,VALID,0.659939,
2001-03-23, 00:01:00,VALID,917.026,VALID,0,VALID,98.234,VALID,-0.0169808,VALID,19.0664,VALID,304,VALID,0.704181,
2001-03-23, 00:02:00,VALID,917.03,VALID,0,VALID,98.2671,VALID,-0.0339617,VALID,19.0528,VALID,330,VALID,0.265203,
2001-03-23, 00:03:00,VALID,917.067,VALID,0,VALID,98.2289,VALID,0,VALID,19.0535,VALID,321,VALID,1.00982,
2001-03-23, 00:04:00,VALID,917.075,VALID,0,VALID,98.1869,VALID,-0.0339617,VALID,19.0597,VALID,334,VALID,0.797508,
2001-03-23, 00:05:00,VALID,917.083,VALID,0,VALID,98.1958,VALID,-0.0339617,VALID,19.0465,VALID,20,VALID,0.915234,
2001-03-23, 00:06:00,VALID,917.018,VALID,0,VALID,98.1895,VALID,-0.0169808,VALID,19.0535,VALID,300,VALID,0.318216,
2001-03-23, 00:07:00,VALID,916.97,VALID,0,VALID,98.1501,VALID,-0.0339617,VALID,19.0401,VALID,142,VALID,0.843956,
2001-03-23, 00:08:00,VALID,916.928,VALID,0,VALID,98.1958,VALID,-0.0169808,VALID,19.0666,VALID,56,VALID,0.392681,
2001-03-23, 00:09:00,VALID,916.924,VALID,0,VALID,98.1577,VALID,0,VALID,19.0625,VALID,310,VALID,0.866602,
2001-03-23, 00:10:00,VALID,916.933,VALID,0,VALID,98.0153,VALID,-0.0339617,VALID,19.0604,VALID,336,VALID,1.6653,
2001-03-23, 00:11:00,VALID,916.934,VALID,0,VALID,97.5842,VALID,-0.0339617,VALID,19.0796,VALID,348,VALID,1.42208,
2001-03-23, 00:12:00,VALID,916.938,VALID,0,VALID,97.3629,VALID,-0.0169808,VALID,19.1014,VALID,285,VALID,0.67272,
2001-03-23, 00:13:00,VALID,916.927,VALID,0,VALID,97.2714,VALID,-0.0339617,VALID,19.1206,VALID,323,VALID,0.347656,
2001-03-23, 00:14:00,VALID,916.895,VALID,0,VALID,97.2231,VALID,-0.0169808,VALID,19.1208,VALID,352,VALID,0.261502,
2001-03-23, 00:15:00,VALID,916.887,VALID,0,VALID,97.1163,VALID,-0.0169808,VALID,19.1213,VALID,298,VALID,0.857088,
2001-03-23, 00:16:00,VALID,916.871,VALID,0,VALID,96.9471,VALID,-0.0509425,VALID,19.1119,VALID,278,VALID,0.593539,
2001-03-23, 00:17:00,VALID,916.848,VALID,0,VALID,96.8022,VALID,-0.0339617,VALID,19.1153,VALID,328,VALID,0.581414,
2001-03-23, 00:18:00,VALID,916.813,VALID,0,VALID,96.6865,VALID,-0.0339617,VALID,19.128,VALID,11,VALID,0.808799,
2001-03-23, 00:19:00,VALID,916.843,VALID,0,VALID,96.6407,VALID,-0.0169808,VALID,19.1203,VALID,30,VALID,0.842607,
2001-03-23, 00:20:00,VALID,916.837,VALID,0,VALID,96.3851,VALID,0,VALID,19.1243,VALID,14,VALID,0.815584,
2001-03-23, 00:21:00,VALID,916.836,VALID,0,VALID,96.5466,VALID,-0.0169808,VALID,19.1442,VALID,84,VALID,0.335526,
2001-03-23, 00:22:00,VALID,916.826,VALID,0,VALID,96.6013,VALID,-0.0169808,VALID,19.1437,VALID,129,VALID,0.290799,
2001-03-23, 00:23:00,VALID,916.806,VALID,0,VALID,96.4855,VALID,0.0169808,VALID,19.1375,VALID,180,VALID,0.552576,
2001-03-23, 00:24:00,VALID,916.766,VALID,0,VALID,96.6229,VALID,0.0169808,VALID,19.1305,VALID,85,VALID,0.795982,
2001-03-23, 00:25:00,VALID,916.749,VALID,0,VALID,96.6343,VALID,-0.0509425,VALID,19.1208,VALID,34,VALID,0.728413,
2001-03-23, 00:26:00,VALID,916.729,VALID,0,VALID,96.5924,VALID,0,VALID,19.1121,VALID,315,VALID,0.611486,
2001-03-23, 00:27:00,VALID,916.706,VALID,0,VALID,96.7869,VALID,0.0169808,VALID,19.0756,VALID,72,VALID,0.282484,
2001-03-23, 00:28:00,VALID,916.668,VALID,0,VALID,97.0794,VALID,-0.0169808,VALID,19.0721,VALID,103,VALID,0.00863487,
2001-03-23, 00:29:00,VALID,916.661,VALID,0,VALID,97.1506,VALID,-0.0169808,VALID,19.0689,VALID,103,VALID,0.00703125,
2001-03-23, 00:30:00,VALID,916.649,VALID,0,VALID,97.2574,VALID,-0.0339617,VALID,19.0826,VALID,95,VALID,0.00123355,
2001-03-23, 00:31:00,VALID,916.629,VALID,0,VALID,97.1849,VALID,-0.0169808,VALID,19.0535,VALID,35,VALID,0.627821,
2001-03-23, 00:32:00,VALID,916.608,VALID,0,VALID,97.1646,VALID,-0.0169808,VALID,19.0433,VALID,329,VALID,0.520481,
2001-03-23, 00:33:00,VALID,916.598,VALID,0,VALID,97.2714,VALID,0,VALID,19.0505,VALID,67,VALID,0.537796,
2001-03-23, 00:34:00,VALID,916.582,VALID,0,VALID,97.265,VALID,0.0169808,VALID,19.0302,VALID,134,VALID,0.282629,
2001-03-23, 00:35:00,VALID,916.556,VALID,0,VALID,97.3121,VALID,-0.0169808,VALID,19.044,VALID,93,VALID,0.958398,
2001-03-23, 00:36:00,VALID,916.541,VALID,0,VALID,97.5054,VALID,-0.0339617,VALID,19.0468,VALID,104,VALID,1.14183,
2001-03-23, 00:37:00,VALID,916.534,VALID,0,VALID,97.6719,VALID,-0.0679233,VALID,19.0565,VALID,100,VALID,1.44881,
2001-03-23, 00:38:00,VALID,916.497,VALID,0,VALID,97.7889,VALID,-0.0339617,VALID,19.0704,VALID,101,VALID,1.6028,
2001-03-23, 00:39:00,VALID,916.446,VALID,0,VALID,97.8945,VALID,-0.0679233,VALID,19.0637,VALID,99,VALID,1.77266,
2001-03-23, 00:40:00,VALID,916.419,VALID,0,VALID,97.9797,VALID,-0.0849042,VALID,19.0438,VALID,92,VALID,1.22944,
2001-03-23, 00:41:00,VALID,916.442,VALID,0,VALID,98.0941,VALID,-0.0339617,VALID,19.0408,VALID,98,VALID,0.909745,
2001-03-23, 00:42:00,VALID,916.446,VALID,0,VALID,98.1908,VALID,-0.0679233,VALID,19.0373,VALID,107,VALID,0.706081,
2001-03-23, 00:43:00,VALID,916.473,VALID,0,VALID,98.2747,VALID,-0.0679233,VALID,19.0314,VALID,70,VALID,0.201823,
2001-03-23, 00:44:00,VALID,916.489,VALID,0,VALID,98.3357,VALID,-0.0169808,VALID,19.0279,VALID,101,VALID,0,
2001-03-23, 00:45:00,VALID,916.503,VALID,0,VALID,98.3815,VALID,-0.0849042,VALID,19.041,VALID,133,VALID,0.291349,
2001-03-23, 00:46:00,VALID,916.517,VALID,0,VALID,98.4514,VALID,-0.0509425,VALID,19.0343,VALID,80,VALID,0.0405405,
2001-03-23, 00:47:00,VALID,916.531,VALID,0,VALID,98.529,VALID,-0.0509425,VALID,19.0733,VALID,125,VALID,0.199424,
2001-03-23, 00:48:00,VALID,916.52,VALID,0,VALID,98.5443,VALID,-0.101885,VALID,19.0771,VALID,103,VALID,1.03618,
2001-03-23, 00:49:00,VALID,916.52,VALID,0,VALID,98.5583,VALID,-0.0849042,VALID,19.0733,VALID,94,VALID,0.624238,
2001-03-23, 00:50:00,VALID,916.535,VALID,0,VALID,98.59,VALID,-0.0849042,VALID,19.0669,VALID,78,VALID,0.176192,
2001-03-23, 00:51:00,VALID,916.539,VALID,0,VALID,98.6015,VALID,-0.101885,VALID,19.0574,VALID,51,VALID,0.0355674,
2001-03-23, 00:52:00,VALID,916.529,VALID,0,VALID,98.6053,VALID,-0.118866,VALID,19.0507,VALID,275,VALID,0.147352,
2001-03-23, 00:53:00,VALID,916.517,VALID,0,VALID,98.6295,VALID,-0.0849042,VALID,19.0507,VALID,98,VALID,0.507179,
2001-03-23, 00:54:00,VALID,916.499,VALID,0,VALID,98.6587,VALID,-0.0679233,VALID,19.0403,VALID,100,VALID,0.932366,
2001-03-23, 00:55:00,VALID,916.503,VALID,0,VALID,98.6918,VALID,-0.0679233,VALID,19.0503,VALID,103,VALID,0.796053,
2001-03-23, 00:56:00,VALID,916.503,VALID,0,VALID,98.7236,VALID,-0.0679233,VALID,19.0701,VALID,96,VALID,0.519426,
2001-03-23, 00:57:00,VALID,916.508,VALID,0,VALID,98.7337,VALID,-0.101885,VALID,19.0768,VALID,113,VALID,0.182977,
2001-03-23, 00:58:00,VALID,916.497,VALID,0,VALID,98.7325,VALID,-0.0679233,VALID,19.0634,VALID,110,VALID,0.354941,
2001-03-23, 00:59:00,VALID,916.5,VALID,0,VALID,98.7299,VALID,-0.0679233,VALID,19.0403,VALID,209,VALID,0.01875,
2001-03-23, 01:00:00,VALID,916.482,VALID,0,VALID,98.7325,VALID,-0.101885,VALID,19.0413,VALID,137,VALID,1.0109,
2001-03-23, 01:01:00,VALID,916.457,VALID,0,VALID,98.7477,VALID,-0.101885,VALID,19.0406,VALID,103,VALID,0.921441,
2001-03-23, 01:02:00,VALID,916.432,VALID,0,VALID,98.7719,VALID,-0.0509425,VALID,19.0572,VALID,123,VALID,0.304265,
2001-03-23, 01:03:00,VALID,916.409,VALID,0,VALID,98.777,VALID,-0.0509425,VALID,19.0376,VALID,190,VALID,0.108742,
2001-03-23, 01:04:00,VALID,916.372,VALID,0,VALID,98.7808,VALID,-0.0169808,VALID,19.0212,VALID,218,VALID,0.0799632,
2001-03-23, 01:05:00,VALID,916.338,VALID,0,VALID,98.7973,VALID,-0.0679233,VALID,19.0207,VALID,195,VALID,0.357227,
2001-03-23, 01:06:00,VALID,916.318,VALID,0,VALID,98.8037,VALID,-0.0509425,VALID,19.0279,VALID,237,VALID,0.193309,
2001-03-23, 01:07:00,VALID,916.287,VALID,0,VALID,98.824,VALID,-0.0679233,VALID,19.0214,VALID,109,VALID,0.60074,
2001-03-23, 01:08:00,VALID,916.256,VALID,0,VALID,98.8584,VALID,-0.0509425,VALID,19.0373,VALID,100,VALID,0.788446,
2001-03-23, 01:09:00,VALID,916.232,VALID,0,VALID,98.8851,VALID,-0.0339617,VALID,19.0599,VALID,100,VALID,0.448438,
2001-03-23, 01:10:00,VALID,916.245,VALID,0,VALID,98.8584,VALID,-0.0679233,VALID,19.0542,VALID,93,VALID,0,
2001-03-23, 01:11:00,VALID,916.263,VALID,0,VALID,98.8431,VALID,-0.0849042,VALID,19.0311,VALID,120,VALID,0,
2001-03-23, 01:12:00,VALID,916.256,VALID,0,VALID,98.8545,VALID,-0.0339617,VALID,19.0309,VALID,200,VALID,0.10663,
2001-03-23, 01:13:00,VALID,916.239,VALID,0,VALID,98.8431,VALID,-0.0849042,VALID,19.0115,VALID,290,VALID,0.349609,
2001-03-23, 01:14:00,VALID,916.221,VALID,0,VALID,98.8545,VALID,-0.0509425,VALID,19.005,VALID,281,VALID,0.132813,
2001-03-23, 01:15:00,VALID,916.185,VALID,0,VALID,98.8685,VALID,-0.0679233,VALID,19.0018,VALID,28,VALID,0.414253,
2001-03-23, 01:16:00,VALID,916.162,VALID,0,VALID,98.8812,VALID,-0.0849042,VALID,19.005,VALID,48,VALID,0.0401182,
2001-03-23, 01:17:00,VALID,916.14,VALID,0,VALID,98.9003,VALID,-0.0339617,VALID,19.0217,VALID,125,VALID,0.385896,
2001-03-23, 01:18:00,VALID,916.121,VALID,0,VALID,98.9423,VALID,-0.0339617,VALID,19.0343,VALID,132,VALID,0.208059,
2001-03-23, 01:19:00,VALID,916.099,VALID,0,VALID,98.9156,VALID,-0.0339617,VALID,19.0304,VALID,160,VALID,0.023628,
2001-03-23, 01:20:00,VALID,916.085,VALID,0,VALID,98.9041,VALID,-0.0339617,VALID,19.0147,VALID,298,VALID,0.236431,
2001-03-23, 01:21:00,VALID,916.063,VALID,0,VALID,98.913,VALID,-0.0509425,VALID,18.9979,VALID,283,VALID,0.357113,
2001-03-23, 01:22:00,VALID,916.037,VALID,0,VALID,98.9525,VALID,-0.0849042,VALID,19.011,VALID,77,VALID,1.05295,
2001-03-23, 01:23:00,VALID,916,VALID,0,VALID,98.9308,VALID,-0.0679233,VALID,19.0214,VALID,282,VALID,0.756334,
2001-03-23, 01:24:00,VALID,915.974,VALID,0,VALID,98.9156,VALID,-0.0509425,VALID,18.9861,VALID,309,VALID,0.955134,
2001-03-23, 01:25:00,VALID,915.965,VALID,0,VALID,98.9054,VALID,-0.0849042,VALID,18.9536,VALID,338,VALID,0.839844,
2001-03-23, 01:26:00,VALID,915.953,VALID,0,VALID,98.9092,VALID,-0.0509425,VALID,18.9278,VALID,333,VALID,0.083826,
2001-03-23, 01:27:00,VALID,915.936,VALID,0,VALID,98.9537,VALID,-0.0679233,VALID,18.9278,VALID,334,VALID,0.0195313,
2001-03-23, 01:28:00,VALID,915.912,VALID,0,VALID,98.9982,VALID,-0.0509425,VALID,18.9407,VALID,92,VALID,0.243032,
2001-03-23, 01:29:00,VALID,915.895,VALID,0,VALID,99.0402,VALID,-0.0849042,VALID,18.979,VALID,289,VALID,0.334375,
2001-03-23, 01:30:00,VALID,915.87,VALID,0,VALID,99.0046,VALID,-0.0679233,VALID,18.9601,VALID,342,VALID,0.548725,
2001-03-23, 01:31:00,VALID,915.853,VALID,0,VALID,99.0211,VALID,-0.0509425,VALID,18.9668,VALID,101,VALID,0.984158,
2001-03-23, 01:32:00,VALID,915.839,VALID,0,VALID,99.0491,VALID,-0.0679233,VALID,18.9822,VALID,93,VALID,0.624367,
2001-03-23, 01:33:00,VALID,915.83,VALID,0,VALID,99.0631,VALID,-0.0849042,VALID,18.9889,VALID,38,VALID,0.232897,
2001-03-23, 01:34:00,VALID,915.83,VALID,0,VALID,99.072,VALID,-0.0679233,VALID,19.002,VALID,99,VALID,0.0298713,
2001-03-23, 01:35:00,VALID,915.826,VALID,0,VALID,99.0758,VALID,-0.0509425,VALID,18.9919,VALID,201,VALID,0.0681641,
2001-03-23, 01:36:00,VALID,915.818,VALID,0,VALID,99.0605,VALID,-0.0849042,VALID,18.9921,VALID,174,VALID,0.241787,
2001-03-23, 01:37:00,VALID,915.815,VALID,0,VALID,99.0885,VALID,-0.0679233,VALID,19.0182,VALID,149,VALID,0.280016,
2001-03-23, 01:38:00,VALID,915.791,VALID,0,VALID,99.0974,VALID,-0.0509425,VALID,19.0214,VALID,181,VALID,0.0501645,
2001-03-23, 01:39:00,VALID,915.753,VALID,0,VALID,99.0872,VALID,-0.0509425,VALID,19.0046,VALID,246,VALID,0.215625,
2001-03-23, 01:40:00,VALID,915.75,VALID,0,VALID,99.086,VALID,-0.0849042,VALID,18.9889,VALID,292,VALID,0.39597,
2001-03-23, 01:41:00,VALID,915.737,VALID,0,VALID,99.0809,VALID,-0.0339617,VALID,18.9531,VALID,302,VALID,0.172697,
2001-03-23, 01:42:00,VALID,915.703,VALID,0,VALID,99.0771,VALID,-0.0509425,VALID,18.9566,VALID,305,VALID,0.063978,
2001-03-23, 01:43:00,VALID,915.678,VALID,0,VALID,99.1038,VALID,-0.0679233,VALID,18.9861,VALID,347,VALID,0.131293,
2001-03-23, 01:44:00,VALID,915.696,VALID,0,VALID,99.1178,VALID,-0.0679233,VALID,18.9822,VALID,73,VALID,0.0896267,
2001-03-23, 01:45:00,VALID,915.706,VALID,0,VALID,99.1203,VALID,-0.0679233,VALID,18.9755,VALID,127,VALID,0.0222942,
2001-03-23, 01:46:00,VALID,915.697,VALID,0,VALID,99.0974,VALID,-0.101885,VALID,18.9568,VALID,18,VALID,0.326647,
2001-03-23, 01:47:00,VALID,915.684,VALID,0,VALID,99.1038,VALID,-0.0679233,VALID,18.9538,VALID,339,VALID,0.158717,
2001-03-23, 01:48:00,VALID,915.682,VALID,0,VALID,99.1394,VALID,-0.0509425,VALID,18.9566,VALID,114,VALID,0.37685,
2001-03-23, 01:49:00,VALID,915.684,VALID,0,VALID,99.1737,VALID,-0.0849042,VALID,18.9921,VALID,113,VALID,0.634718,
2001-03-23, 01:50:00,VALID,915.673,VALID,0,VALID,99.1661,VALID,-0.0339617,VALID,19.0046,VALID,108,VALID,0.389803,
2001-03-23, 01:51:00,VALID,915.666,VALID,0,VALID,99.1712,VALID,-0.0509425,VALID,19.0177,VALID,107,VALID,0.4669,
2001-03-23, 01:52:00,VALID,915.644,VALID,0,VALID,99.1623,VALID,-0.0849042,VALID,19.0152,VALID,97,VALID,0.507813,
2001-03-23, 01:53:00,VALID,915.649,VALID,0,VALID,99.1635,VALID,-0.0679233,VALID,19.0053,VALID,116,VALID,0.292652,
2001-03-23, 01:54:00,VALID,915.638,VALID,0,VALID,99.1534,VALID,-0.0849042,VALID,18.9953,VALID,86,VALID,0.505134,
2001-03-23, 01:55:00,VALID,915.63,VALID,0,VALID,99.1648,VALID,-0.101885,VALID,19.0055,VALID,100,VALID,0.266036,
2001-03-23, 01:56:00,VALID,915.631,VALID,0,VALID,99.161,VALID,-0.0509425,VALID,18.9958,VALID,115,VALID,0.0690456,
2001-03-23, 01:57:00,VALID,915.645,VALID,0,VALID,99.1585,VALID,-0.0849042,VALID,18.9956,VALID,109,VALID,0.273026,
2001-03-23, 01:58:00,VALID,915.618,VALID,0,VALID,99.1648,VALID,-0.0679233,VALID,18.976,VALID,113,VALID,0.664696,
2001-03-23, 01:59:00,VALID,915.634,VALID,0,VALID,99.1724,VALID,-0.0679233,VALID,18.982,VALID,94,VALID,0.243945,
2001-03-23, 02:00:00,VALID,915.661,VALID,0,VALID,99.1877,VALID,-0.0679233,VALID,18.9988,VALID,121,VALID,0,
2001-03-23, 02:01:00,VALID,915.664,VALID,0,VALID,99.1826,VALID,-0.0679233,VALID,19.0085,VALID,117,VALID,0.194444,
2001-03-23, 02:02:00,VALID,915.652,VALID,0,VALID,99.1979,VALID,-0.0849042,VALID,19.0247,VALID,175,VALID,0.273649,
2001-03-23, 02:03:00,VALID,915.658,VALID,0,VALID,99.1928,VALID,-0.0679233,VALID,19.0217,VALID,38,VALID,0.54413,
2001-03-23, 02:04:00,VALID,915.656,VALID,0,VALID,99.1686,VALID,-0.101885,VALID,19.012,VALID,81,VALID,0.450138,
2001-03-23, 02:05:00,VALID,915.668,VALID,0,VALID,99.1852,VALID,-0.0509425,VALID,19.0085,VALID,142,VALID,0.42793,
2001-03-23, 02:06:00,VALID,915.68,VALID,0,VALID,99.1839,VALID,-0.0509425,VALID,18.9782,VALID,126,VALID,0.673478,
2001-03-23, 02:07:00,VALID,915.683,VALID,0,VALID,99.1826,VALID,0.0509425,VALID,18.9847,VALID,148,VALID,0.757607,
2001-03-23, 02:08:00,VALID,915.667,VALID,0,VALID,99.1813,VALID,0.0339617,VALID,18.9552,VALID,108,VALID,0.886924,
2001-03-23, 02:09:00,VALID,915.674,VALID,0,VALID,99.1991,VALID,0.0679233,VALID,18.9681,VALID,194,VALID,0.27207,
2001-03-23, 02:10:00,VALID,915.673,VALID,0,VALID,99.1979,VALID,0.0169808,VALID,18.9882,VALID,126,VALID,0.763363,
2001-03-23, 02:11:00,VALID,915.676,VALID,0,VALID,99.2169,VALID,0,VALID,19.0004,VALID,97,VALID,0.627878,
2001-03-23, 02:12:00,VALID,915.697,VALID,0,VALID,99.2093,VALID,0.0339617,VALID,18.9912,VALID,93,VALID,0.455448,
2001-03-23, 02:13:00,VALID,915.684,VALID,0,VALID,99.2119,VALID,0,VALID,18.9651,VALID,82,VALID,0.563802,
2001-03-23, 02:14:00,VALID,915.708,VALID,0,VALID,99.1902,VALID,-0.0169808,VALID,18.9658,VALID,175,VALID,0.281901,
2001-03-23, 02:15:00,VALID,915.688,VALID,0,VALID,99.1686,VALID,0.0169808,VALID,18.9263,VALID,186,VALID,0.322409,
2001-03-23, 02:16:00,VALID,915.678,VALID,0,VALID,99.2017,VALID,0.0169808,VALID,18.9233,VALID,98,VALID,0.663007,
2001-03-23, 02:17:00,VALID,915.678,VALID,0,VALID,99.2144,VALID,0.0169808,VALID,18.9365,VALID,180,VALID,0.217722,
2001-03-23, 02:18:00,VALID,915.664,VALID,0,VALID,99.1928,VALID,0.0339617,VALID,18.9201,VALID,172,VALID,0.268709,
2001-03-23, 02:19:00,VALID,915.655,VALID,0,VALID,99.1813,VALID,0,VALID,18.8876,VALID,263,VALID,0.423971,
2001-03-23, 02:20:00,VALID,915.657,VALID,0,VALID,99.1864,VALID,0.0509425,VALID,18.8555,VALID,257,VALID,0.203331,
2001-03-23, 02:21:00,VALID,915.665,VALID,0,VALID,99.1979,VALID,0.0339617,VALID,18.8225,VALID,277,VALID,0.151727,
2001-03-23, 02:22:00,VALID,915.686,VALID,0,VALID,99.2106,VALID,0.0339617,VALID,18.8428,VALID,28,VALID,0.276693,
2001-03-23, 02:23:00,VALID,915.701,VALID,0,VALID,99.2119,VALID,0.0339617,VALID,18.8195,VALID,92,VALID,0.59016,
2001-03-23, 02:24:00,VALID,915.724,VALID,0,VALID,99.1979,VALID,0,VALID,18.7942,VALID,85,VALID,0.697098,
2001-03-23, 02:25:00,VALID,915.742,VALID,0,VALID,99.2093,VALID,0,VALID,18.7843,VALID,103,VALID,1.31723,
2001-03-23, 02:26:00,VALID,915.737,VALID,0,VALID,99.2246,VALID,0.0339617,VALID,18.7942,VALID,99,VALID,0.89147,
2001-03-23, 02:27:00,VALID,915.727,VALID,0,VALID,99.2258,VALID,0,VALID,18.8041,VALID,86,VALID,0.864309,
2001-03-23, 02:28:00,VALID,915.695,VALID,0,VALID,99.2437,VALID,0.0169808,VALID,18.7907,VALID,92,VALID,0.912373,
2001-03-23, 02:29:00,VALID,915.702,VALID,0,VALID,99.2424,VALID,0.0169808,VALID,18.7972,VALID,92,VALID,0.825195,
2001-03-23, 02:30:00,VALID,915.694,VALID,0,VALID,99.2462,VALID,-0.0169808,VALID,18.7942,VALID,107,VALID,0.428248,
2001-03-23, 02:31:00,VALID,915.671,VALID,0,VALID,99.2525,VALID,0,VALID,18.7944,VALID,209,VALID,0.194878,
2001-03-23, 02:32:00,VALID,915.653,VALID,0,VALID,99.2335,VALID,0,VALID,18.7753,VALID,255,VALID,0.0935389,
2001-03-23, 02:33:00,VALID,915.625,VALID,0,VALID,99.2169,VALID,0,VALID,18.7524,VALID,126,VALID,0.295608,
2001-03-23, 02:34:00,VALID,915.616,VALID,0,VALID,99.2462,VALID,0,VALID,18.7589,VALID,168,VALID,0.201287,
2001-03-23, 02:35:00,VALID,915.578,VALID,0,VALID,99.2564,VALID,0,VALID,18.7656,VALID,118,VALID,0.393164,
2001-03-23, 02:36:00,VALID,915.536,VALID,0,VALID,99.2551,VALID,0,VALID,18.7591,VALID,293,VALID,0.252204,
2001-03-23, 02:37:00,VALID,915.491,VALID,0,VALID,99.236,VALID,0,VALID,18.7308,VALID,28,VALID,0.951686,
2001-03-23, 02:38:00,VALID,915.486,VALID,0,VALID,99.2551,VALID,0,VALID,18.7243,VALID,131,VALID,0.729441,
2001-03-23, 02:39:00,VALID,915.465,VALID,0,VALID,99.2487,VALID,-0.0339617,VALID,18.7405,VALID,260,VALID,0.576563,
2001-03-23, 02:40:00,VALID,915.449,VALID,0,VALID,99.2475,VALID,-0.0169808,VALID,18.7342,VALID,78,VALID,0.465666,
2001-03-23, 02:41:00,VALID,915.435,VALID,0,VALID,99.2373,VALID,-0.0169808,VALID,18.695,VALID,58,VALID,0.600535,
2001-03-23, 02:42:00,VALID,915.412,VALID,0,VALID,99.2475,VALID,0,VALID,18.6985,VALID,5,VALID,0.531672,
2001-03-23, 02:43:00,VALID,915.373,VALID,0,VALID,99.2424,VALID,-0.0509425,VALID,18.692,VALID,220,VALID,0.0735677,
2001-03-23, 02:44:00,VALID,915.351,VALID,0,VALID,99.264,VALID,-0.0339617,VALID,18.7017,VALID,107,VALID,0.402778,
2001-03-23, 02:45:00,VALID,915.357,VALID,0,VALID,99.2742,VALID,-0.0339617,VALID,18.7211,VALID,53,VALID,0.274962,
2001-03-23, 02:46:00,VALID,915.36,VALID,0,VALID,99.2513,VALID,-0.0169808,VALID,18.7089,VALID,11,VALID,0.838894,
2001-03-23, 02:47:00,VALID,915.345,VALID,0.2,VALID,99.2729,VALID,-0.0169808,VALID,18.7079,VALID,84,VALID,0.402549,
2001-03-23, 02:48:00,VALID,915.354,VALID,0,VALID,99.2869,VALID,0,VALID,18.7345,VALID,102,VALID,1.08285,
2001-03-23, 02:49:00,VALID,915.349,VALID,0,VALID,99.2653,VALID,0.0339617,VALID,18.7146,VALID,322,VALID,0.386623,
2001-03-23, 02:50:00,VALID,915.363,VALID,0,VALID,99.2538,VALID,0.0169808,VALID,18.6886,VALID,309,VALID,1.07381,
2001-03-23, 02:51:00,VALID,915.33,VALID,0,VALID,99.2437,VALID,0,VALID,18.6528,VALID,348,VALID,1.19387,
2001-03-23, 02:52:00,VALID,915.28,VALID,0,VALID,99.2462,VALID,-0.0169808,VALID,18.647,VALID,344,VALID,1.41905,
2001-03-23, 02:53:00,VALID,915.278,VALID,0,VALID,99.2538,VALID,-0.0169808,VALID,18.6371,VALID,41,VALID,0.824002,
2001-03-23, 02:54:00,VALID,915.306,VALID,0,VALID,99.2729,VALID,0,VALID,18.6719,VALID,103,VALID,0.735714,
2001-03-23, 02:55:00,VALID,915.276,VALID,0,VALID,99.2729,VALID,0.0169808,VALID,18.7047,VALID,109,VALID,0.710938,
2001-03-23, 02:56:00,VALID,915.264,VALID,0,VALID,99.278,VALID,-0.0169808,VALID,18.7146,VALID,99,VALID,0.853463,
2001-03-23, 02:57:00,VALID,915.214,VALID,0,VALID,99.2831,VALID,-0.0169808,VALID,18.7342,VALID,96,VALID,1.28146,
2001-03-23, 02:58:00,VALID,915.188,VALID,0,VALID,99.2983,VALID,-0.0509425,VALID,18.7467,VALID,329,VALID,0.263302,
2001-03-23, 02:59:00,VALID,915.163,VALID,0,VALID,99.2831,VALID,0,VALID,18.7536,VALID,243,VALID,0.169336,
2001-03-23, 03:00:00,VALID,915.127,VALID,0,VALID,99.2805,VALID,0,VALID,18.7506,VALID,122,VALID,0.381168,
2001-03-23, 03:01:00,VALID,915.135,VALID,0,VALID,99.2958,VALID,0,VALID,18.7765,VALID,79,VALID,0.00520833,
2001-03-23, 03:02:00,VALID,915.157,VALID,0,VALID,99.2882,VALID,-0.0339617,VALID,18.7732,VALID,78,VALID,0.359375,
2001-03-23, 03:03:00,VALID,915.148,VALID,0,VALID,99.2996,VALID,-0.0169808,VALID,18.7822,VALID,96,VALID,0.0447635,
2001-03-23, 03:04:00,VALID,915.168,VALID,0,VALID,99.2843,VALID,-0.0509425,VALID,18.7924,VALID,219,VALID,0.181296,
2001-03-23, 03:05:00,VALID,915.165,VALID,0,VALID,99.2843,VALID,0,VALID,18.7757,VALID,179,VALID,0.0863281,
2001-03-23, 03:06:00,VALID,915.156,VALID,0,VALID,99.2843,VALID,-0.0169808,VALID,18.7728,VALID,144,VALID,0.426082,
2001-03-23, 03:07:00,VALID,915.165,VALID,0,VALID,99.278,VALID,-0.0169808,VALID,18.7661,VALID,165,VALID,0.399877,
2001-03-23, 03:08:00,VALID,915.157,VALID,0,VALID,99.2843,VALID,-0.0169808,VALID,18.7628,VALID,135,VALID,0.360609,
2001-03-23, 03:09:00,VALID,915.145,VALID,0,VALID,99.2907,VALID,0,VALID,18.7725,VALID,275,VALID,0.716797,
2001-03-23, 03:10:00,VALID,915.131,VALID,0,VALID,99.2869,VALID,-0.0169808,VALID,18.7765,VALID,292,VALID,0.20991,
2001-03-23, 03:11:00,VALID,915.139,VALID,0,VALID,99.3085,VALID,0,VALID,18.7891,VALID,64,VALID,0.387541,
2001-03-23, 03:12:00,VALID,915.131,VALID,0,VALID,99.3047,VALID,-0.0169808,VALID,18.8147,VALID,186,VALID,0.300253,
2001-03-23, 03:13:00,VALID,915.114,VALID,0,VALID,99.2869,VALID,-0.0169808,VALID,18.8117,VALID,286,VALID,1.21766,
2001-03-23, 03:14:00,VALID,915.1,VALID,0,VALID,99.292,VALID,0,VALID,18.779,VALID,12,VALID,0.597222,
2001-03-23, 03:15:00,VALID,915.126,VALID,0,VALID,99.2856,VALID,-0.0169808,VALID,18.7824,VALID,338,VALID,0.711319,
2001-03-23, 03:16:00,VALID,915.122,VALID,0,VALID,99.2869,VALID,-0.0169808,VALID,18.7732,VALID,325,VALID,0.144848,
2001-03-23, 03:17:00,VALID,915.137,VALID,0,VALID,99.2894,VALID,-0.0169808,VALID,18.77,VALID,261,VALID,0.151521,
2001-03-23, 03:18:00,VALID,915.138,VALID,0,VALID,99.2996,VALID,-0.0339617,VALID,18.776,VALID,295,VALID,0.345189,
2001-03-23, 03:19:00,VALID,915.157,VALID,0,VALID,99.2932,VALID,-0.0339617,VALID,18.7693,VALID,279,VALID,0.145008,
2001-03-23, 03:20:00,VALID,915.147,VALID,0,VALID,99.311,VALID,-0.0339617,VALID,18.8053,VALID,61,VALID,0.758224,
2001-03-23, 03:21:00,VALID,915.172,VALID,0,VALID,99.3098,VALID,-0.0339617,VALID,18.8279,VALID,99,VALID,0.291324,
2001-03-23, 03:22:00,VALID,915.206,VALID,0,VALID,99.3123,VALID,0,VALID,18.8177,VALID,329,VALID,0.362196,
2001-03-23, 03:23:00,VALID,915.208,VALID,0,VALID,99.2971,VALID,-0.0169808,VALID,18.8117,VALID,50,VALID,0.828336,
2001-03-23, 03:24:00,VALID,915.238,VALID,0.2,VALID,99.3174,VALID,-0.0169808,VALID,18.8281,VALID,168,VALID,0.101116,
2001-03-23, 03:25:00,VALID,915.249,VALID,0.2,VALID,99.3161,VALID,0,VALID,18.8572,VALID,267,VALID,0.390831,
2001-03-23, 03:26:00,VALID,915.218,VALID,0.2,VALID,99.3072,VALID,0,VALID,18.8378,VALID,317,VALID,1.48057,
2001-03-23, 03:27:00,VALID,915.22,VALID,0,VALID,99.3047,VALID,-0.0169808,VALID,18.8346,VALID,329,VALID,2.29009,
2001-03-23, 03:28:00,VALID,915.215,VALID,0.2,VALID,99.3123,VALID,0,VALID,18.8403,VALID,316,VALID,1.70671,
2001-03-23, 03:29:00,VALID,915.231,VALID,0,VALID,99.3161,VALID,-0.0169808,VALID,18.8401,VALID,322,VALID,2.20156,
2001-03-23, 03:30:00,VALID,915.223,VALID,0.2,VALID,99.3199,VALID,-0.0169808,VALID,18.8669,VALID,324,VALID,2.24301,